Regional Weather Roundup
Issued by NWS

Home | Current Version | Previous Version | Text Only | Print | Product List | Glossary Off
Versions: 1 2 3 4 5 6 7 8 9 10 11 12 13 14 15 16 17 18 19 20 21 22 23 24 25 26 27 28 29 30 31 32 33 34 35 36 37 38 39 40 41 42 43 44 45 46 47 48 49 50

000
ASUS43 KIND 312259
RWRIN

WEATHER ROUNDUP FOR INDIANA
NATIONAL WEATHER SERVICE INDIANAPOLIS IN
700 PM EDT MON AUG 31 2015

NOTE: "FAIR" INDICATES FEW OR NO CLOUDS BELOW 12,000 FEET WITH NO
SIGNIFICANT WEATHER AND/OR OBSTRUCTIONS TO VISIBILITY.

* - STATION DOES NOT REPORT WEATHER SUCH AS PRECIPITATION OR FOG.

+ - STATION NOT QUALITY CONTROLLED BY THE NATIONAL WEATHER SERVICE.
    USE DATA WITH CAUTION...ESPECIALLY DEWPOINT AND RELATIVE
    HUMIDITY OBSERVATIONS.

INZ001>003-010>013-019-020-010000-
NORTHWEST INDIANA

CITY           SKY/WX    TMP DP  RH WIND       PRES   REMARKS
GARY /AIRPORT/ MOSUNNY   82  68  61 CALM      30.02S
KNOX *+        SUNNY     82  64  54 SW5       30.02S
MONTICELLO +   MOSUNNY   84  71  64 SW8       30.03R
RENSSELAER +   SUNNY     82  70  65 S5        30.03S

$$

LMZ046-743>745-010000-
SOUTHERN LAKE MICHIGAN

STATION/POSITION TIME  TEMP    WIND        PRES    WAVE
                       AIR SEA DIR/SP/G            HT
                 (UTC) (F)     (DEG/KT/KT) (MB)    (FT)
BURNS HARBOR     2200   75      80/ 10/ 11 1016.9F
MICHIGAN CITY    2200   73      40/  8/  9   N/A
5NW MICH CITY    2200   74 73   80/  6/  6   N/A     0

$$

INZ004-005-014>016-021>024-010000-
NORTH CENTRAL INDIANA

CITY           SKY/WX    TMP DP  RH WIND       PRES   REMARKS
ELKHART        SUNNY     82  68  61 CALM      30.05R
GOSHEN         SUNNY     83  70  64 NW5       30.04S
SOUTH BEND     SUNNY     83  68  60 CALM      30.04S
WARSAW +       SUNNY     82  68  61 W3        30.04S

$$

INZ006>009-017-018-025>027-010000-
NORTHEAST INDIANA

CITY           SKY/WX    TMP DP  RH WIND       PRES   REMARKS
ANGOLA *+      SUNNY     84  72  65 CALM      30.05S
FORT WAYNE     MOSUNNY   84  69  60 SW6       30.05S

$$

INZ028-029-035-036-043>045-051>053-010000-
WEST CENTRAL INDIANA

CITY           SKY/WX    TMP DP  RH WIND       PRES   REMARKS
CRAWFORDSVL +  SUNNY     81  63  54 S5        30.06S
GREENCASTLE +  SUNNY     81  64  57 S5        30.07S
LAFAYETTE      SUNNY     84  66  54 SW6       30.03S
TERRE HAUTE    SUNNY     85  68  56 SW8       30.05S

$$

INZ030>032-037>040-046>048-054>057-064-065-010000-
CENTRAL INDIANA

CITY           SKY/WX    TMP DP  RH WIND       PRES   REMARKS
FRANKFORT +    SUNNY     83  70  62 SW6       30.07S
GREENWOOD *+   SUNNY     82  64  54 SW5       30.07S
INDIANAPOLIS   MOSUNNY   83  66  56 SW10      30.05S
-EAGLE CREEK   MOSUNNY   83  67  58 SW7       30.05S
KOKOMO *+      MOSUNNY   84  66  54 W8        30.04S
MT COMFORT *+  SUNNY     84  59  42 SW5       30.06S
SHELBYVILLE    SUNNY     85  67  54 SW8       30.05S
ZIONSVILLE +   SUNNY     84  65  52 SW8       30.06S

$$

INZ033-034-041-042-049-050-058-059-010000-
EAST CENTRAL INDIANA

CITY           SKY/WX    TMP DP  RH WIND       PRES   REMARKS
MUNCIE         PTSUNNY   82  66  58 SW5       30.06R THUNDER

$$

INZ060-061-067>069-081>083-085>088-010000-
SOUTHWEST INDIANA

CITY           SKY/WX    TMP DP  RH WIND       PRES   REMARKS
EVANSVILLE     PTSUNNY   86  68  54 MISG      30.06S
HUNTINGBURG *+ SUNNY     84  66  54 S8        30.07S

$$

INZ062-063-066-070>080-084-089>092-010000-
SOUTH CENTRAL AND SOUTHEAST INDIANA

CITY           SKY/WX    TMP DP  RH WIND       PRES   REMARKS
BLOOMINGTON    SUNNY     83  69  62 SW5       30.07S
MADISON *+     SUNNY     82  63  51 SW6       30.09S
SEYMOUR +      SUNNY     86  66  51 CALM      30.06S

$$




USA.gov is the U.S. government's official web portal to all federal, state and local government web resources and services.